SCP
-0 -0 -0 -0 -0 -0 -0 -0 -0 -0 -0 -0 -0 -0 -0 -0 -0 -0 -0 -0 -0 -0 -0 0 0 0 0 0 0 0 0 0 0 0 0 0 0 0 0 0 0 0 0
-0 -0 -0 -0 -0 -0 -0 -0 -0 -0 -0 -0 -0 -0 -0 -0 -0 -0 -0 -0 -0 -0 -0 0 0 0 0 0 0 0 0 0 0 0 0 0 0 0 0 0 0 0 0
-0 -0 -0 -0 -0 -0 -0 -0 -0 -0 -0 -0 -0 -0 -0 -0 -0 -0 -0 -0 -0 -0 0 0 0 0 0 0 0 0 0 0 0 0 0 0 0 0 0 0 0 0 0
-0 -0 -0 -0 -0 -0 -0 -0 -0 -0 -0 -0 -0 -0 -0 -0 -0 -0 -0 -0 -0 -0 0 0 0 0 0 0 0 0 0 0 0 0 0 0 0 0 0 0 0 0 0
-0 -0 -0 -0 -0 -0 -0 -0 -0 -0 -0 -0 -0 -0 -0 -0 -0 -0 -0 -0 -0 0 0 0 0 0 0 0 0 0 0 0 0 0 0 0 0 0 0 0 0 0 0
-0 -0 -0 -0 -0 -0 -0 -0 -0 -0 -0 -0 -0 -0 -0 -0 -0 -0 -0 -0 -0 0 0 0 0 0 0 0 0 0 0 0 0 0 0 0 0 0 0 0 0 0 0
-0 -0 -0 -0 -0 -0 -0 -0 -0 -0 -0 -0 -0 -0 -0 -0 -0 -0 -0 -0 0 0 0 0 0 0 0 0 0 0 0 0 0 0 0 0 0 0 0 0 0 0 0
-0 -0 -0 -0 -0 -0 -0 -0 -0 -0 -0 -0 -0 -0 -0 -0 -0 0 0 0 0 0 0 0 0 0 0 0 0 0 0 0 0 0 0 0 0 0 0 0 0 0 0
0 -0 -0 -0 -0 -0 -0 -0 -0 -0 0 0 -0 -0 0 0 0 0 0 0 0 0 0 0 0 0 -0 -0 0 0 0 0 0 0 0 0 0 0 0 0 0 0 0
0 0 0 -0 -0 -0 -0 -0 -0 0 0 0 0 0 -0 0 0 0 0 0 0 0 0 0 0 0 -0 0 0 0 0 0 0 0 0 0 0 0 0 0 0 0 0
0 0 0 0 -0 -0 -0 0 0 0 0 0 0 0 0 0 0 0 0 0 0 0 0 0 0 0 0 0 0 0 0 0 0 0 0 0 0 0 0 -0 0 0 0
0 0 0 0 0 0 0 0 0 0 0 0 0 0 0 0 0 0 0 0 0 0 0 0 0 0 0 0 0 0 0 0 0 0 0 0 0 0 0 -0 -0 -0 0
0 0 0 0 0 0 0 0 0 0 0 0 0 0 0 0 0 0 0 0 0 0 0 0 0 0 0 0 0 0 0 0 0 0 0 0 0 0 0 0 -0 -0 0
0 0 0 0 0 0 0 0 0 0 0 0 0 0 0 0 0 0 0 0 0 0 0 0 0 0 0 0 0 0 0 0 0 0 0 0 0 0 0 0 0 -0 -0
0 0 0 0 0 0 0 0 0 0 0 0 0 0 0 0 0 0 0 0 0 0 0 0 0 0 0 0 0 0 0 0 0 0 0 0 0 0 0 0 0 0 -0
0 0 0 0 0 0 0 0 0 0 0 0 0 0 0 0 0 0 0 0 0 0 0 0 0 0 0 0 0 0 0 0 0 0 0 0 0 0 0 0 0 0 0
0 0 0 0 0 0 0 0 0 0 0 0 0 0 0 0 0 0 0 0 0 0 0 0 0 0 0 0 0 0 0 0 0 0 0 0 0 0 0 0 0 0 0
0 0 0 0 0 0 0 0 0 0 0 0 0 0 0 0 0 0 0 0 0 0 0 0 0 0 0 0 0 0 0 0 0 0 0 0 0 0 0 0 0 -0 -0
0 0 0 0 0 0 0 0 0 0 0 0 0 0 0 0 0 0 0 0 0 0 0 0 0 0 0 0 0 0 0 0 0 0 0 0 0 0 0 0 0 0 -0
0 0 0 0 0 0 0 0 0 0 0 0 0 0 0 0 0 0 0 0 0 0 0 0 0 0 0 0 0 0 0 0 0 0 0 0 0 0 0 0 0 0 0
0 0 0 0 0 0 0 0 0 0 0 0 0 0 0 0 0 0 0 0 0 0 0 0 0 0 0 0 0 0 0 0 0 0 0 0 0 0 0 0 0 -0 -0
0 0 0 0 0 0 0 0 0 0 0 0 0 0 0 0 0 0 0 0 0 0 0 0 0 0 0 0 0 0 0 0 0 0 0 0 0 0 0 -0 0 -0 -0
0 0 0 0 0 0 0 0 0 0 0 0 0 0 0 0 0 0 0 0 0 0 0 0 0 0 0 0 0 -0 -0 0 0 0 0 0 0 0 0 0 -0 -0 -0
0 0 0 0 0 0 0 0 0 0 0 0 0 0 0 0 0 0 0 0 0 0 0 0 0 0 0 0 -0 0 0 0 -0 0 0 0 -0 -0 0 -0 -0 -0 -0
0 0 0 0 0 0 0 0 0 0 0 0 0 0 0 0 0 0 0 0 0 0 0 0 0 0 0 0 0 0 0 0 0 -0 0 0 -0 -0 -0 -0 -0 -0 -0
0 0 0 0 0 0 0 0 0 0 0 0 0 0 0 0 0 0 0 0 0 0 0 0 0 0 0 0 0 0 0 -0 -0 -0 0 0 -0 -0 -0 -0 -0 -0 -0
Wind_Speed_500mb
24 23 23 18 10 6 10 11 11 5 9 12 16 19 21 25 28 30 32 32 32 33 34 36 37 37 36 38 39 39 40 41 42 44 45 45 44 45 48 50 50 46 34
27 23 21 14 11 13 8 12 14 7 11 14 17 21 24 27 30 32 33 34 35 37 37 37 34 33 30 35 33 32 33 34 37 40 39 37 31 39 50 52 53 54 50
24 23 21 15 16 12 6 6 15 16 14 15 19 24 27 29 32 34 35 37 37 38 36 35 29 29 30 28 29 30 32 33 35 32 30 28 28 34 41 45 51 55 56
23 20 16 18 15 12 2 9 15 17 15 17 21 25 27 29 31 36 38 38 37 37 33 30 27 29 29 30 29 29 28 30 35 34 30 27 29 33 37 38 40 49 56
22 19 15 15 15 4 6 16 19 16 16 20 24 27 31 33 36 37 38 37 33 30 27 26 28 28 30 29 29 30 29 28 29 28 26 29 37 30 42 40 38 40 48
25 20 19 15 9 4 10 21 21 15 17 21 25 29 31 33 35 38 39 35 31 26 24 26 29 27 32 33 34 33 33 33 33 29 30 32 34 39 45 44 45 42 43
24 21 18 12 8 7 15 24 15 16 18 21 26 29 32 33 35 37 34 29 26 24 25 25 29 32 34 36 34 32 31 31 33 32 34 36 35 46 44 44 44 45 41
22 19 16 12 10 10 18 18 14 16 18 21 26 30 32 34 34 34 32 29 25 26 27 28 31 34 37 40 38 29 29 31 32 29 36 37 52 42 41 47 50 46 41
21 17 13 11 13 15 19 14 14 16 19 22 27 31 34 35 36 32 28 23 23 23 26 31 33 35 39 42 37 31 31 30 35 34 32 33 54 41 42 45 44 40 40
17 12 9 10 13 17 14 12 13 13 17 23 28 32 35 36 34 29 26 24 21 23 26 31 32 37 37 44 39 33 31 35 31 29 32 45 48 43 42 41 43 38 36
12 9 6 5 11 10 9 10 12 15 18 24 31 34 36 31 29 26 24 23 22 23 26 30 34 37 41 43 42 35 37 33 31 29 29 43 43 43 39 41 46 42 39
10 8 6 6 6 5 8 9 12 16 22 26 29 32 31 28 26 25 26 23 22 22 27 29 34 41 39 38 39 41 38 35 31 29 31 40 40 41 41 41 48 50 39
11 9 7 3 4 4 7 9 12 17 20 24 29 30 29 26 24 23 23 23 21 24 23 26 31 37 38 33 37 40 41 42 41 38 38 42 41 40 40 39 44 49 45
11 11 6 5 4 3 6 9 13 16 19 22 27 27 26 25 24 23 14 11 19 24 25 27 29 33 33 30 27 35 40 45 49 47 43 53 44 42 42 38 38 43 43
15 14 10 8 5 3 5 9 13 15 18 21 22 24 23 22 22 17 22 17 17 24 26 25 27 29 33 32 23 28 35 42 48 53 50 57 63 51 42 41 36 36 40
20 20 18 13 9 4 5 9 13 15 17 18 19 22 24 22 23 26 26 25 20 21 24 23 27 26 31 30 24 24 31 39 46 51 53 54 58 58 51 44 40 36 36
29 26 24 17 12 6 6 9 12 13 14 15 17 20 21 23 25 26 27 29 28 26 22 23 23 24 25 24 23 21 27 37 47 48 54 56 56 56 60 47 42 41 39
29 29 25 19 13 8 5 7 9 10 10 13 14 13 15 20 23 22 23 26 31 31 29 23 25 24 25 23 19 17 24 35 39 47 50 56 63 59 62 58 54 48 46
25 27 23 18 14 10 5 6 7 6 9 7 6 14 18 21 21 22 23 25 28 29 34 33 31 32 29 23 18 12 21 37 33 42 47 53 57 60 60 63 68 64 52
21 23 21 17 16 11 5 4 5 7 7 3 10 17 19 21 22 22 22 24 25 32 34 32 32 31 36 25 14 9 9 31 26 43 45 45 49 53 56 62 65 67 68
19 20 21 19 19 10 4 5 7 7 7 5 13 15 14 15 17 18 21 20 22 24 26 29 29 30 38 38 15 16 14 7 25 38 36 48 45 47 51 58 65 73 75
22 23 22 20 18 16 11 16 10 8 7 9 13 11 11 12 13 14 17 18 20 22 26 27 30 27 31 38 32 17 15 5 29 36 45 55 46 42 51 46 58 74 76
24 23 23 20 16 15 13 12 11 7 6 8 7 6 7 9 12 14 15 16 18 19 22 24 28 28 32 30 37 27 12 14 31 28 50 54 46 40 44 42 59 71 78
27 23 21 20 19 18 19 16 13 8 10 10 7 5 6 8 10 11 12 13 14 16 16 21 25 27 27 30 30 31 25 23 22 21 42 52 48 42 40 44 58 66 77
26 27 25 22 21 20 19 17 16 14 13 11 8 4 3 3 5 6 8 9 10 13 17 20 21 24 27 29 32 28 25 25 37 24 26 60 51 39 37 36 62 65 82
26 26 25 24 21 19 20 19 19 18 16 14 11 7 6 5 6 8 9 10 11 13 16 18 21 24 28 29 31 34 35 33 35 31 31 48 41 48 24 26 76 69 87
Wind_Direction_500mb
147 159 153 158 131 126 72 16 359 359 5 359 353 349 349 346 341 337 336 335 331 328 324 322 320 321 319 317 316 312 308 304 298 293 287 284 282 281 275 269 264 260 261
150 153 152 129 109 94 60 22 4 15 8 360 353 349 349 347 343 339 337 337 335 328 325 324 323 320 323 322 326 326 322 320 313 309 307 301 295 290 275 271 267 263 257
144 158 142 123 106 117 112 343 358 0 2 359 356 348 346 348 345 340 339 337 334 332 330 329 336 336 335 333 332 338 344 338 329 332 330 342 313 307 295 282 271 266 261
144 136 138 117 122 150 45 307 340 351 354 354 353 349 345 347 345 343 341 338 337 334 336 343 351 351 352 353 353 352 343 339 346 345 355 331 326 318 316 307 292 277 268
140 150 146 143 151 148 303 308 326 339 350 351 352 347 348 350 348 344 340 340 343 346 358 1 2 3 1 359 359 1 356 354 354 360 339 334 331 328 322 314 301 286 274
149 161 163 162 166 249 309 308 327 338 348 351 351 348 348 349 347 345 344 346 349 358 5 15 7 12 14 7 5 3 1 0 0 5 350 342 342 328 326 324 319 310 298
155 161 167 175 202 266 297 319 325 340 347 351 349 348 347 350 349 348 348 350 359 6 14 24 29 23 14 8 2 357 1 6 8 9 356 353 338 336 339 335 329 321 312
161 163 181 202 236 276 299 318 327 341 345 349 348 347 349 350 351 352 353 359 10 20 32 36 30 22 17 12 7 6 11 12 15 4 3 2 347 352 346 336 328 325 317
161 174 193 228 257 286 306 313 328 340 347 348 350 349 351 355 353 356 3 13 18 34 38 34 28 21 16 13 14 21 16 13 18 7 6 348 353 1 357 341 336 324 317
163 185 223 257 273 279 294 307 323 343 346 347 351 352 353 358 360 4 12 15 28 41 36 28 27 20 16 22 24 19 17 17 12 7 356 350 355 0 355 347 347 342 328
176 194 212 271 267 280 293 312 328 339 346 353 353 354 358 4 9 13 17 22 37 41 31 27 25 23 22 20 25 24 22 12 13 5 344 349 358 360 355 341 346 342 343
204 219 235 255 286 296 305 326 333 342 352 352 355 356 2 9 14 16 15 24 34 23 25 24 25 24 24 29 26 25 21 19 13 9 343 354 359 2 1 356 355 359 352
221 238 229 246 281 295 305 330 337 348 353 352 356 1 6 11 17 17 15 10 21 5 17 20 22 23 24 26 31 30 30 30 25 25 16 10 9 9 8 10 4 15 16
214 236 232 226 236 286 330 348 348 347 351 356 359 6 11 13 13 13 14 15 18 14 13 18 16 18 20 18 28 32 27 29 28 30 25 20 15 15 14 18 16 16 23
216 228 216 229 242 282 343 352 353 351 355 1 7 10 17 13 14 12 22 29 30 21 16 12 16 18 19 22 26 30 28 28 28 28 28 26 24 22 21 15 17 15 17
212 212 214 216 236 263 336 351 353 356 360 8 12 18 17 16 27 33 29 28 25 20 14 11 14 21 20 17 20 35 33 32 29 27 29 30 26 26 29 24 19 15 12
211 213 221 213 231 260 324 341 354 2 10 18 25 24 15 29 38 39 30 28 19 14 16 16 12 21 24 22 30 38 36 37 34 29 32 33 30 27 30 27 26 24 16
192 204 209 208 225 245 298 337 356 4 16 30 37 26 28 41 48 46 31 28 31 26 22 27 22 24 20 25 35 46 43 33 32 31 33 34 35 35 34 32 30 29 30
186 197 197 203 228 246 283 326 351 12 43 56 35 40 49 54 45 43 36 30 27 27 31 32 29 28 23 26 30 34 54 31 32 31 30 29 29 34 33 34 36 35 36
183 195 197 211 230 241 262 337 20 53 75 2 59 59 59 58 56 56 50 44 38 35 37 40 37 32 27 40 28 51 42 30 42 33 30 34 28 21 27 29 27 27 27
193 200 211 216 225 224 197 130 138 142 138 79 70 77 68 51 47 45 45 36 35 32 31 32 41 28 25 36 62 43 42 21 44 31 29 35 30 29 20 15 26 25 22
195 202 210 217 218 215 197 177 190 207 143 96 91 79 61 53 35 31 32 28 31 36 33 33 40 42 39 33 45 42 28 7 29 10 31 27 43 26 27 9 12 14 13
201 200 202 205 208 199 188 181 181 186 139 134 113 85 66 34 28 32 34 34 32 31 32 34 41 43 50 55 50 59 34 17 356 0 13 19 29 31 25 3 3 7 10
211 209 206 206 203 196 182 163 172 172 203 177 147 126 66 40 42 52 52 46 43 46 43 40 43 43 45 51 60 70 54 32 21 347 11 26 36 37 6 7 360 9 10
218 212 206 202 202 201 200 199 195 193 186 176 176 150 86 53 64 60 57 46 51 49 48 45 40 41 44 45 48 47 45 38 34 26 349 11 33 42 20 13 0 8 6
216 206 200 199 198 203 200 190 187 185 185 189 190 174 159 111 94 77 74 69 65 60 57 55 53 54 55 56 54 52 49 45 33 32 4 9 18 27 11 8 354 1 2
Wind_Speed_850mb
24 23 23 18 10 6 10 11 11 5 9 12 16 19 21 25 28 30 32 32 32 33 34 36 37 37 36 38 39 39 40 41 42 44 45 45 44 45 48 50 50 46 34
27 23 21 14 11 13 8 12 14 7 11 14 17 21 24 27 30 32 33 34 35 37 37 37 34 33 30 35 33 32 33 34 37 40 39 37 31 39 50 52 53 54 50
24 23 21 15 16 12 6 6 15 16 14 15 19 24 27 29 32 34 35 37 37 38 36 35 29 29 30 28 29 30 32 33 35 32 30 28 28 34 41 45 51 55 56
23 20 16 18 15 12 2 9 15 17 15 17 21 25 27 29 31 36 38 38 37 37 33 30 27 29 29 30 29 29 28 30 35 34 30 27 29 33 37 38 40 49 56
22 19 15 15 15 4 6 16 19 16 16 20 24 27 31 33 36 37 38 37 33 30 27 26 28 28 30 29 29 30 29 28 29 28 26 29 37 30 42 40 38 40 48
25 20 19 15 9 4 10 21 21 15 17 21 25 29 31 33 35 38 39 35 31 26 24 26 29 27 32 33 34 33 33 33 33 29 30 32 34 39 45 44 45 42 43
24 21 18 12 8 7 15 24 15 16 18 21 26 29 32 33 35 37 34 29 26 24 25 25 29 32 34 36 34 32 31 31 33 32 34 36 35 46 44 44 44 45 41
22 19 16 12 10 10 18 18 14 16 18 21 26 30 32 34 34 34 32 29 25 26 27 28 31 34 37 40 38 29 29 31 32 29 36 37 52 42 41 47 50 46 41
21 17 13 11 13 15 19 14 14 16 19 22 27 31 34 35 36 32 28 23 23 23 26 31 33 35 39 42 37 31 31 30 35 34 32 33 54 41 42 45 44 40 40
17 12 9 10 13 17 14 12 13 13 17 23 28 32 35 36 34 29 26 24 21 23 26 31 32 37 37 44 39 33 31 35 31 29 32 45 48 43 42 41 43 38 36
12 9 6 5 11 10 9 10 12 15 18 24 31 34 36 31 29 26 24 23 22 23 26 30 34 37 41 43 42 35 37 33 31 29 29 43 43 43 39 41 46 42 39
10 8 6 6 6 5 8 9 12 16 22 26 29 32 31 28 26 25 26 23 22 22 27 29 34 41 39 38 39 41 38 35 31 29 31 40 40 41 41 41 48 50 39
11 9 7 3 4 4 7 9 12 17 20 24 29 30 29 26 24 23 23 23 21 24 23 26 31 37 38 33 37 40 41 42 41 38 38 42 41 40 40 39 44 49 45
11 11 6 5 4 3 6 9 13 16 19 22 27 27 26 25 24 23 14 11 19 24 25 27 29 33 33 30 27 35 40 45 49 47 43 53 44 42 42 38 38 43 43
15 14 10 8 5 3 5 9 13 15 18 21 22 24 23 22 22 17 22 17 17 24 26 25 27 29 33 32 23 28 35 42 48 53 50 57 63 51 42 41 36 36 40
20 20 18 13 9 4 5 9 13 15 17 18 19 22 24 22 23 26 26 25 20 21 24 23 27 26 31 30 24 24 31 39 46 51 53 54 58 58 51 44 40 36 36
29 26 24 17 12 6 6 9 12 13 14 15 17 20 21 23 25 26 27 29 28 26 22 23 23 24 25 24 23 21 27 37 47 48 54 56 56 56 60 47 42 41 39
29 29 25 19 13 8 5 7 9 10 10 13 14 13 15 20 23 22 23 26 31 31 29 23 25 24 25 23 19 17 24 35 39 47 50 56 63 59 62 58 54 48 46
25 27 23 18 14 10 5 6 7 6 9 7 6 14 18 21 21 22 23 25 28 29 34 33 31 32 29 23 18 12 21 37 33 42 47 53 57 60 60 63 68 64 52
21 23 21 17 16 11 5 4 5 7 7 3 10 17 19 21 22 22 22 24 25 32 34 32 32 31 36 25 14 9 9 31 26 43 45 45 49 53 56 62 65 67 68
19 20 21 19 19 10 4 5 7 7 7 5 13 15 14 15 17 18 21 20 22 24 26 29 29 30 38 38 15 16 14 7 25 38 36 48 45 47 51 58 65 73 75
22 23 22 20 18 16 11 16 10 8 7 9 13 11 11 12 13 14 17 18 20 22 26 27 30 27 31 38 32 17 15 5 29 36 45 55 46 42 51 46 58 74 76
24 23 23 20 16 15 13 12 11 7 6 8 7 6 7 9 12 14 15 16 18 19 22 24 28 28 32 30 37 27 12 14 31 28 50 54 46 40 44 42 59 71 78
27 23 21 20 19 18 19 16 13 8 10 10 7 5 6 8 10 11 12 13 14 16 16 21 25 27 27 30 30 31 25 23 22 21 42 52 48 42 40 44 58 66 77
26 27 25 22 21 20 19 17 16 14 13 11 8 4 3 3 5 6 8 9 10 13 17 20 21 24 27 29 32 28 25 25 37 24 26 60 51 39 37 36 62 65 82
26 26 25 24 21 19 20 19 19 18 16 14 11 7 6 5 6 8 9 10 11 13 16 18 21 24 28 29 31 34 35 33 35 31 31 48 41 48 24 26 76 69 87
Wind_Direction_850mb
147 159 153 158 131 126 72 16 359 359 5 359 353 349 349 346 341 337 336 335 331 328 324 322 320 321 319 317 316 312 308 304 298 293 287 284 282 281 275 269 264 260 261
150 153 152 129 109 94 60 22 4 15 8 360 353 349 349 347 343 339 337 337 335 328 325 324 323 320 323 322 326 326 322 320 313 309 307 301 295 290 275 271 267 263 257
144 158 142 123 106 117 112 343 358 0 2 359 356 348 346 348 345 340 339 337 334 332 330 329 336 336 335 333 332 338 344 338 329 332 330 342 313 307 295 282 271 266 261
144 136 138 117 122 150 45 307 340 351 354 354 353 349 345 347 345 343 341 338 337 334 336 343 351 351 352 353 353 352 343 339 346 345 355 331 326 318 316 307 292 277 268
140 150 146 143 151 148 303 308 326 339 350 351 352 347 348 350 348 344 340 340 343 346 358 1 2 3 1 359 359 1 356 354 354 360 339 334 331 328 322 314 301 286 274
149 161 163 162 166 249 309 308 327 338 348 351 351 348 348 349 347 345 344 346 349 358 5 15 7 12 14 7 5 3 1 0 0 5 350 342 342 328 326 324 319 310 298
155 161 167 175 202 266 297 319 325 340 347 351 349 348 347 350 349 348 348 350 359 6 14 24 29 23 14 8 2 357 1 6 8 9 356 353 338 336 339 335 329 321 312
161 163 181 202 236 276 299 318 327 341 345 349 348 347 349 350 351 352 353 359 10 20 32 36 30 22 17 12 7 6 11 12 15 4 3 2 347 352 346 336 328 325 317
161 174 193 228 257 286 306 313 328 340 347 348 350 349 351 355 353 356 3 13 18 34 38 34 28 21 16 13 14 21 16 13 18 7 6 348 353 1 357 341 336 324 317
163 185 223 257 273 279 294 307 323 343 346 347 351 352 353 358 360 4 12 15 28 41 36 28 27 20 16 22 24 19 17 17 12 7 356 350 355 0 355 347 347 342 328
176 194 212 271 267 280 293 312 328 339 346 353 353 354 358 4 9 13 17 22 37 41 31 27 25 23 22 20 25 24 22 12 13 5 344 349 358 360 355 341 346 342 343
204 219 235 255 286 296 305 326 333 342 352 352 355 356 2 9 14 16 15 24 34 23 25 24 25 24 24 29 26 25 21 19 13 9 343 354 359 2 1 356 355 359 352
221 238 229 246 281 295 305 330 337 348 353 352 356 1 6 11 17 17 15 10 21 5 17 20 22 23 24 26 31 30 30 30 25 25 16 10 9 9 8 10 4 15 16
214 236 232 226 236 286 330 348 348 347 351 356 359 6 11 13 13 13 14 15 18 14 13 18 16 18 20 18 28 32 27 29 28 30 25 20 15 15 14 18 16 16 23
216 228 216 229 242 282 343 352 353 351 355 1 7 10 17 13 14 12 22 29 30 21 16 12 16 18 19 22 26 30 28 28 28 28 28 26 24 22 21 15 17 15 17
212 212 214 216 236 263 336 351 353 356 360 8 12 18 17 16 27 33 29 28 25 20 14 11 14 21 20 17 20 35 33 32 29 27 29 30 26 26 29 24 19 15 12
211 213 221 213 231 260 324 341 354 2 10 18 25 24 15 29 38 39 30 28 19 14 16 16 12 21 24 22 30 38 36 37 34 29 32 33 30 27 30 27 26 24 16
192 204 209 208 225 245 298 337 356 4 16 30 37 26 28 41 48 46 31 28 31 26 22 27 22 24 20 25 35 46 43 33 32 31 33 34 35 35 34 32 30 29 30
186 197 197 203 228 246 283 326 351 12 43 56 35 40 49 54 45 43 36 30 27 27 31 32 29 28 23 26 30 34 54 31 32 31 30 29 29 34 33 34 36 35 36
183 195 197 211 230 241 262 337 20 53 75 2 59 59 59 58 56 56 50 44 38 35 37 40 37 32 27 40 28 51 42 30 42 33 30 34 28 21 27 29 27 27 27
193 200 211 216 225 224 197 130 138 142 138 79 70 77 68 51 47 45 45 36 35 32 31 32 41 28 25 36 62 43 42 21 44 31 29 35 30 29 20 15 26 25 22
195 202 210 217 218 215 197 177 190 207 143 96 91 79 61 53 35 31 32 28 31 36 33 33 40 42 39 33 45 42 28 7 29 10 31 27 43 26 27 9 12 14 13
201 200 202 205 208 199 188 181 181 186 139 134 113 85 66 34 28 32 34 34 32 31 32 34 41 43 50 55 50 59 34 17 356 0 13 19 29 31 25 3 3 7 10
211 209 206 206 203 196 182 163 172 172 203 177 147 126 66 40 42 52 52 46 43 46 43 40 43 43 45 51 60 70 54 32 21 347 11 26 36 37 6 7 360 9 10
218 212 206 202 202 201 200 199 195 193 186 176 176 150 86 53 64 60 57 46 51 49 48 45 40 41 44 45 48 47 45 38 34 26 349 11 33 42 20 13 0 8 6
216 206 200 199 198 203 200 190 187 185 185 189 190 174 159 111 94 77 74 69 65 60 57 55 53 54 55 56 54 52 49 45 33 32 4 9 18 27 11 8 354 1 2